This demonstration page uses our WeatherBlox Daily Observations layout. Learn more.

Hourly Observations for July 31, 2020

Temp ( °F °C ) Dew Point ( °F °C ) Humidity (%) Winds ( mph kmh ) Pressure ( in mb ) Visibility ( mi km ) Precip ( " mm )
12:15 am 00:15 Partly Cloudy 70 21 70 21 100 100 Calm 29.87 1012 10 16.0934 0.01 0.254
12:35 am 00:35 Mostly Cloudy 70 21 70 21 100 100 S 5 7 29.86 1011 10 16.0934 0.02 0.508
12:55 am 00:55 Mostly Cloudy 70 21 70 21 100 100 S 5 7 29.86 1011 10 16.0934 0.03 0.762
1:15 am 01:15 Partly Cloudy 70 21 70 21 100 100 S 5 7 29.85 1011 10 16.0934 0.01 0.254
1:35 am 01:35 Partly Cloudy 68 20 68 20 100 100 Calm 29.84 1011 10 16.0934 0.01 0.254
1:55 am 01:55 Partly Cloudy 68 20 68 20 100 100 Calm 29.84 1011 10 16.0934 0.01 0.254
2:15 am 02:15 Partly Cloudy 68 20 68 20 100 100 Calm 29.82 1010 10 16.0934 0 0
2:35 am 02:35 Mostly Cloudy 68 20 68 20 100 100 Calm 29.82 1010 10 16.0934 0 0
2:55 am 02:55 Cloudy 68 20 68 20 100 100 Calm 29.81 1010 10 16.0934 0 0
3:15 am 03:15 Cloudy 68 20 68 20 100 100 Calm 29.81 1010 5 8.0467 0.02 0.508
3:35 am 03:35 Cloudy 68 20 68 20 100 100 Calm 29.81 1010 5 8.0467 0.04 1.016
3:55 am 03:55 Cloudy 68 20 68 20 100 100 Calm 29.8 1009 5 8.0467 0.08 2.032
4:15 am 04:15 Cloudy 68 20 68 20 100 100 Calm 29.8 1009 5 8.0467 0.02 0.508
4:35 am 04:35 Cloudy 66 19 66 19 100 100 Calm 29.79 1009 7 11.26538 0.02 0.508
4:55 am 04:55 Cloudy 66 19 66 19 100 100 Calm 29.79 1009 10 16.0934 0.02 0.508
5:15 am 05:15 Cloudy 66 19 66 19 100 100 Calm 29.79 1009 10 16.0934 0 0
5:35 am 05:35 Cloudy 66 19 66 19 100 100 Calm 29.79 1009 10 16.0934 0 0
5:55 am 05:55 Cloudy 66 19 66 19 100 100 Calm 29.8 1009 7 11.26538 0 0
6:15 am 06:15 Cloudy 66 19 66 19 100 100 NW 5 7 29.8 1009 10 16.0934 0 0
6:35 am 06:35 Cloudy 66 19 66 19 100 100 NNW 3 6 29.81 1010 3 4.82802 0.12 3.048
6:55 am 06:55 Cloudy 64 18 64 18 100 100 N 5 7 29.81 1010 2.5 4.02335 0.25 6.35
7:15 am 07:15 Cloudy 64 18 64 18 100 100 N 3 6 29.82 1010 1.5 2.41401 0.18 4.572
7:35 am 07:35 Cloudy 64 18 64 18 100 100 Calm 29.82 1010 5 8.0467 0.27 6.858
7:55 am 07:55 Cloudy 64 18 64 18 100 100 Calm 29.82 1010 2.5 4.02335 0.32 8.128
8:15 am 08:15 Cloudy 64 18 64 18 100 100 NE 3 6 29.82 1010 4 6.43736 0.02 0.508
8:35 am 08:35 Cloudy 64 18 64 18 100 100 NE 3 6 29.83 1010 5 8.0467 0.03 0.762
8:55 am 08:55 Cloudy 64 18 64 18 100 100 Calm 29.83 1010 10 16.0934 0.03 0.762
9:15 am 09:15 Cloudy 64 18 64 18 100 100 ENE 3 6 29.83 1010 4 6.43736 0.02 0.508
9:35 am 09:35 Cloudy 64 18 64 18 100 100 Calm 29.82 1010 7 11.26538 0.02 0.508
9:55 am 09:55 Cloudy 64 18 64 18 100 100 Calm 29.82 1010 7 11.26538 0.02 0.508
10:15 am 10:15 Cloudy 64 18 64 18 100 100 Calm 29.82 1010 10 16.0934 0 0
10:35 am 10:35 Cloudy 66 19 66 19 100 100 Calm 29.83 1010 10 16.0934 0 0
10:55 am 10:55 Cloudy 68 20 66 19 94 94 Calm 29.83 1010 10 16.0934 0 0
11:15 am 11:15 Cloudy 68 20 66 19 94 94 Calm 29.83 1010 10 16.0934 0 0
11:35 am 11:35 Cloudy 68 20 68 20 100 100 Calm 29.83 1010 10 16.0934 0 0
11:55 am 11:55 Cloudy 68 20 66 19 94 94 NNE 3 6 29.83 1010 7 11.26538 0 0
12:15 pm 12:15 Cloudy 68 20 68 20 100 100 NE 5 7 29.83 1010 3 4.82802 0 0
12:35 pm 12:35 Cloudy 66 19 66 19 100 100 Calm 29.83 1010 2 3.21868 0 0
12:55 pm 12:55 Cloudy 68 20 68 20 100 100 E 3 6 29.82 1010 5 8.0467 0 0
1:15 pm 13:15 Cloudy 68 20 68 20 100 100 NE 5 7 29.82 1010 10 16.0934 0 0
1:35 pm 13:35 Cloudy 70 21 68 20 94 94 NE 3 6 29.82 1010 10 16.0934 0 0
1:55 pm 13:55 Cloudy 70 21 68 20 94 94 ENE 5 7 29.82 1010 10 16.0934 0 0
2:15 pm 14:15 Cloudy 70 21 68 20 94 94 NE 6 9 29.82 1010 10 16.0934 0 0
2:35 pm 14:35 Cloudy 70 21 68 20 94 94 NNE 6 9 29.83 1010 10 16.0934 0 0
2:55 pm 14:55 Cloudy 72 22 68 20 88 88 NNE 6 9 29.82 1010 10 16.0934 0 0
3:15 pm 15:15 Cloudy 72 22 68 20 88 88 NE 5 7 29.83 1010 10 16.0934 0 0
3:35 pm 15:35 Cloudy 72 22 68 20 88 88 NE 5 7 29.82 1010 10 16.0934 0 0
3:55 pm 15:55 Cloudy 73 23 68 20 83 83 NNE 5 7 29.82 1010 10 16.0934 0 0
4:15 pm 16:15 Cloudy 73 23 68 20 83 83 NE 3 6 29.82 1010 10 16.0934 0 0
4:35 pm 16:35 Cloudy 73 23 68 20 83 83 Calm 29.82 1010 10 16.0934 0 0
4:55 pm 16:55 Cloudy 73 23 68 20 83 83 Calm 29.82 1010 10 16.0934 0 0
5:15 pm 17:15 Cloudy 73 23 70 21 89 89 WNW 5 7 29.82 1010 10 16.0934 0 0
5:35 pm 17:35 Cloudy 73 23 70 21 89 89 WNW 3 6 29.83 1010 10 16.0934 0 0
5:55 pm 17:55 Cloudy 73 23 70 21 89 89 N 5 7 29.82 1010 10 16.0934 0 0
6:15 pm 18:15 Cloudy 73 23 70 21 89 89 NNE 5 7 29.82 1010 10 16.0934 0 0
6:35 pm 18:35 Cloudy 73 23 70 21 89 89 NNW 3 6 29.82 1010 10 16.0934 0 0
6:55 pm 18:55 Cloudy 73 23 70 21 89 89 Calm 29.83 1010 10 16.0934 0 0
7:15 pm 19:15 Cloudy 73 23 70 21 89 89 NE 5 7 29.83 1010 10 16.0934 0 0
7:35 pm 19:35 Cloudy 73 23 70 21 89 89 E 9 15 29.84 1010 10 16.0934 0 0
7:55 pm 19:55 Cloudy 72 22 72 22 100 100 ESE 9 15 29.84 1010 10 16.0934 0 0
8:15 pm 20:15 Cloudy 72 22 70 21 94 94 Calm 29.84 1010 10 16.0934 0 0
8:35 pm 20:35 Cloudy 72 22 72 22 100 100 Calm 29.85 1011 10 16.0934 0 0
8:55 pm 20:55 Cloudy 72 22 72 22 100 100 Calm 29.86 1011 10 16.0934 0 0
9:15 pm 21:15 Cloudy 70 21 70 21 100 100 Calm 29.87 1012 10 16.0934 0 0
9:35 pm 21:35 Mostly Cloudy 70 21 70 21 100 100 Calm 29.88 1012 10 16.0934 0 0
9:55 pm 21:55 Cloudy 72 22 70 21 94 94 Calm 29.89 1012 10 16.0934 0 0
10:15 pm 22:15 Cloudy 70 21 70 21 100 100 Calm 29.89 1012 10 16.0934 0 0
10:35 pm 22:35 Cloudy 70 21 70 21 100 100 Calm 29.89 1012 10 16.0934 0 0
10:55 pm 22:55 Cloudy 70 21 70 21 100 100 Calm 29.9 1013 10 16.0934 0 0
11:15 pm 23:15 Cloudy 70 21 70 21 100 100 Calm 29.89 1012 10 16.0934 0 0
11:35 pm 23:35 Cloudy 70 21 70 21 100 100 W 3 6 29.89 1012 10 16.0934 0 0
11:55 pm 23:55 Cloudy 68 20 68 20 100 100 Calm 29.9 1013 10 16.0934 0 0

Powered by AerisWeather